Home   Weather   Kahramanmaraş   Past weeks
Flag for Turkey

Past Weather in Kahramanmaraş, Turkey — Yesterday and Last 2 Weeks

Now
55 °F

Broken clouds.


Feels Like: 52 °F
Forecast: 60 / 36 °F
Wind: 13 mph from West

Location: Kahramanmaraş

Current Time: Mar 26, 2019 at 11:59:50 am

Latest Report: Mar 26, 2019 at 10:50 am


Visibility: N/A

Pressure: 29.83 "Hg (27.91 "Hg at 556m altitude)

Humidity: 55%

Dew Point: 39 °F

Location of KahramanmaraşLocation

Past Weather in Kahramanmaraş — Graph

°F

Kahramanmaraş Temperature Yesterday

Maximum temperature yesterday: 66 °F (at 2:50 pm)
Minimum temperature yesterday: 32 °F (at 5:50 am)
Average temperature yesterday: 50 °F

High & Low Weather Summary for the Past Weeks

 TemperatureHumidityPressure
High70 °F (Mar 21, 2:50 pm)100% (Mar 15, 5:50 am)30.12 "Hg (Mar 15, 5:50 am)
Low32 °F (Mar 25, 5:50 am)21% (Mar 22, 2:50 pm)29.47 "Hg (Mar 25, 2:50 pm)
Average52 °F65%29.90 "Hg
* Reported Mar 11 10:50 am — Mar 26 10:50 am, Kahramanmaraş. Weather by CustomWeather, © 2019

Note: Actual official high and low records may vary slightly from our data, if they occured in-between our weather recording intervals... More about our weather records

Advertising

Kahramanmaraş Weather History for the Previous 24 Hours

Scroll right to see more
 ConditionsComfort  
Time TempWeatherWind HumidityBarometerVisibility
10:50 am
Tue, Mar 26
55 °FBroken clouds.13 mph55%29.83 "HgN/A
9:50 am54 °FBroken clouds.2 mph63%29.83 "HgN/A
8:50 am52 °FBroken clouds.2 mph67%29.80 "HgN/A
7:50 am50 °FBroken clouds.3 mph71%29.80 "HgN/A
6:50 am48 °FBroken clouds.No wind71%29.77 "HgN/A
5:50 am50 °FPartly cloudy.3 mph67%29.77 "HgN/A
4:50 am50 °FPassing clouds.2 mph62%29.74 "HgN/A
3:50 am50 °FPassing clouds.6 mph62%29.71 "HgN/A
2:50 am48 °FPassing clouds.1 mph62%29.71 "HgN/A
1:50 am50 °FPassing clouds.5 mph54%29.68 "HgN/A
12:50 am52 °FPassing clouds.10 mph50%29.68 "HgN/A
11:50 pm
Mon, Mar 25
52 °FPassing clouds.14 mph47%29.65 "HgN/A
10:50 pm52 °FPassing clouds.13 mph47%29.65 "HgN/A
9:50 pm54 °FPassing clouds.14 mph41%29.62 "HgN/A
8:50 pm55 °FPassing clouds.6 mph41%29.59 "HgN/A
7:50 pm57 °FPassing clouds.18 mph36%29.56 "HgN/A
6:50 pm61 °FPassing clouds.12 mph22%29.53 "HgN/A
5:50 pm64 °FBroken clouds.6 mph22%29.50 "HgN/A
4:50 pm66 °FBroken clouds.9 mph21%29.47 "HgN/A
3:50 pm64 °FPartly sunny.16 mph22%29.47 "HgN/A
2:50 pm66 °FScattered clouds.13 mph21%29.47 "HgN/A
1:50 pm64 °FScattered clouds.18 mph24%29.50 "HgN/A
12:50 pm61 °FScattered clouds.7 mph25%29.50 "HgN/A
11:50 am57 °FScattered clouds.9 mph39%29.53 "HgN/A
Weather by CustomWeather, © 2019

See weather overview